Change the Weather History Date:

Tuesday, February 26, 2013

  Actual Average (LFSN) Record (LFSN)
Temperature  
Mean Temperature 30 °F -  
Max Temperature 42 °F 49 °F 57 °F (2008)
Min Temperature 17 °F 36 °F 28 °F (1999)
Degree Days  
Heating Degree Days 36    
Moisture  
Dew Point 20 °F    
Average Humidity 75    
Maximum Humidity 93    
Minimum Humidity 42    
Precipitation  
Precipitation 0.00 in - - ()
Sea Level Pressure  
Sea Level Pressure 30.15 in    
Wind  
Wind Speed 2 mph ()    
Max Wind Speed 6 mph    
Max Gust Speed -    
Visibility 5.0 miles    
Events      
Averages and records for this station are not official NWS values.
T = Trace of Precipitation, MM = Missing Value Source: Averaged Metar Reports

Daily Weather History Graph

Daily Weather History Graph

Search for Another Location

Airport or City:

Trip Planner

Search our weather history database for the weather conditions in past years. The results will help you decide how hot, cold, wet, or windy it might be!

Date:

Astronomy

Feb. 26, 2013 Rise Set
Actual Time 7:23 AM CET 6:14 PM CET
Civil Twilight 6:51 AM CET 6:46 PM CET
Nautical Twilight 6:15 AM CET 7:23 PM CET
Astronomical Twilight 5:39 AM CET 7:59 PM CET
Moon 7:24 PM CET (2/26) 7:10 AM CET (2/26)
Length of Visible Light 11h 54m
Length of Day
10h 51m
Full, 100% of the Moon is Illuminated
Feb 26
Full
Mar 4
Last Quarter
Mar 11
New
Mar 19
First Quarter
Mar 27
Full

Hourly Weather History & Observations

Time (CET) Temp. Windchill Dew Point Humidity Pressure Visibility Wind Dir Wind Speed Gust Speed Precip Events Conditions
12:00 AM 26.6 °F - 24.8 °F 93% 30.12 in - West 2.3 mph - N/A   Mist
12:30 AM 24.8 °F 19.1 °F 23.0 °F 93% 30.12 in - NW 4.6 mph - N/A   Mist
1:00 AM 24.8 °F - 23.0 °F 93% 30.12 in - WNW 2.3 mph - N/A   Mist
1:30 AM 24.8 °F - 23.0 °F 93% 30.12 in - NW 2.3 mph - N/A   Mist
2:00 AM 23.0 °F - 19.4 °F 86% 30.12 in - Calm Calm - N/A   Mist
2:30 AM 21.2 °F - 19.4 °F 93% 30.12 in - Calm Calm - N/A   Mist
3:00 AM 19.4 °F - 17.6 °F 93% 30.12 in 2.5 mi NNW 1.2 mph - N/A   Mist
3:30 AM 19.4 °F - 17.6 °F 93% 30.12 in - Calm Calm - N/A   Mist
4:00 AM 19.4 °F - 15.8 °F 86% 30.12 in 3.1 mi Calm Calm - N/A   Mist
4:30 AM 17.6 °F - 14.0 °F 86% 30.12 in 3.1 mi Calm Calm - N/A   Mist
5:00 AM 17.6 °F - 14.0 °F 86% 30.12 in 3.1 mi Calm Calm - N/A   Mist
5:30 AM 17.6 °F - 14.0 °F 86% 30.12 in 3.1 mi Calm Calm - N/A   Mist
6:00 AM 17.6 °F - 14.0 °F 86% 30.12 in 3.7 mi Calm Calm - N/A   Mostly Cloudy
6:30 AM 17.6 °F - 15.8 °F 93% 30.12 in 3.1 mi Calm Calm - N/A   Mostly Cloudy
7:00 AM 17.6 °F - 15.8 °F 93% 30.12 in 3.1 mi Calm Calm - N/A   Overcast
7:30 AM 17.6 °F - 15.8 °F 93% 30.15 in 3.1 mi Calm Calm - N/A   Mostly Cloudy
8:00 AM 17.6 °F - 15.8 °F 93% 30.15 in 3.1 mi Calm Calm - N/A   Mist
8:30 AM 17.6 °F - 15.8 °F 93% 30.15 in 3.1 mi Variable 1.2 mph - N/A   Mist
9:00 AM 21.2 °F 16.4 °F 17.6 °F 86% 30.15 in - SE 3.5 mph - N/A   Mist
9:30 AM 24.8 °F 20.5 °F 21.2 °F 86% 30.15 in 3.1 mi ESE 3.5 mph - N/A   Mist
10:00 AM 24.8 °F 17.9 °F 21.2 °F 86% 30.18 in 3.7 mi ESE 5.8 mph - N/A   Unknown
10:30 AM 28.4 °F 24.6 °F 23.0 °F 80% 30.18 in 5.0 mi ESE 3.5 mph - N/A   Unknown
11:00 AM 30.2 °F 25.4 °F 23.0 °F 75% 30.18 in 5.0 mi ESE 4.6 mph - N/A   Unknown
11:30 AM 30.2 °F 25.4 °F 23.0 °F 75% 30.18 in 5.6 mi East 4.6 mph - N/A   Unknown
12:00 PM 32.0 °F - 21.2 °F 64% 30.18 in 6.2 mi Variable 2.3 mph - N/A   Unknown
12:30 PM 32.0 °F 28.7 °F 19.4 °F 60% 30.18 in 6.2 mi Variable 3.5 mph - N/A   Unknown
1:00 PM 35.6 °F 32.8 °F 23.0 °F 60% 30.18 in 6.2 mi Variable 3.5 mph - N/A   Unknown
1:30 PM 37.4 °F - 21.2 °F 52% 30.18 in 6.2 mi Variable 2.3 mph - N/A   Unknown
2:00 PM 39.2 °F 37.0 °F 21.2 °F 49% 30.18 in 6.2 mi Variable 3.5 mph - N/A   Unknown
2:30 PM 39.2 °F 35.9 °F 21.2 °F 49% 30.15 in 6.2 mi NNW 4.6 mph - N/A   Unknown
3:00 PM 41.0 °F - 21.2 °F 45% 30.15 in 6.2 mi Variable 2.3 mph - N/A   Unknown
3:30 PM 42.8 °F 40.1 °F 23.0 °F 46% 30.15 in 6.2 mi West 4.6 mph - N/A   Unknown
4:00 PM 41.0 °F 39.0 °F 21.2 °F 45% 30.15 in 6.2 mi North 3.5 mph - N/A   Unknown
4:30 PM 41.0 °F 39.0 °F 21.2 °F 45% 30.15 in 6.2 mi North 3.5 mph - N/A   Unknown
5:00 PM 42.8 °F 41.1 °F 21.2 °F 42% 30.15 in 6.2 mi Variable 3.5 mph - N/A   Unknown
5:30 PM 41.0 °F 38.0 °F 23.0 °F 49% 30.15 in 6.2 mi NW 4.6 mph - N/A   Unknown
6:00 PM 41.0 °F 38.0 °F 23.0 °F 49% 30.15 in 6.2 mi NW 4.6 mph - N/A   Unknown
6:30 PM 37.4 °F 34.9 °F 23.0 °F 56% 30.15 in 6.2 mi Variable 3.5 mph - N/A   Unknown
7:00 PM 33.8 °F 30.8 °F 23.0 °F 65% 30.15 in 6.2 mi NW 3.5 mph - N/A   Unknown
7:30 PM 32.0 °F 26.4 °F 23.0 °F 69% 30.15 in 6.2 mi NW 5.8 mph - N/A   Unknown
8:00 PM 32.0 °F 26.4 °F 23.0 °F 69% 30.18 in 6.2 mi NNW 5.8 mph - N/A   Unknown
8:30 PM 32.0 °F 27.5 °F 23.0 °F 69% 30.18 in 6.2 mi NNW 4.6 mph - N/A   Unknown
9:00 PM 28.4 °F - 21.2 °F 74% 30.18 in 6.2 mi Calm Calm - N/A   Unknown
9:30 PM 26.6 °F - 21.2 °F 80% 30.21 in 6.2 mi Calm Calm - N/A   Unknown
10:00 PM 24.8 °F - 21.2 °F 86% 30.21 in 6.2 mi Calm Calm - N/A   Unknown
10:30 PM 23.0 °F - 19.4 °F 86% 30.21 in 5.6 mi Calm Calm - N/A   Unknown
11:00 PM 23.0 °F - 19.4 °F 86% 30.21 in 5.0 mi Calm Calm - N/A   Unknown
11:30 PM 21.2 °F - 19.4 °F 93% 30.21 in 4.3 mi Calm Calm - N/A   Unknown